SWA324 KPNS-KPBI

Flight info

Callsign SWA324
Flight time 1h 17m
Altitude 35000
Route CEW DEFUN VUUDU1
Aircraft B38M/M-SDE1FGHILORVWXY/HB1

Departure

Time 2026-04-24 23:25
Airport Pensacola International Airport (KPNS)

Arrival

Time 2026-04-25 00:42
Airport Palm Beach International Airport (KPBI)
Time Latitude Longitude Altitude Speed Heading
2026-04-24 23:15 30.47528 -87.19075 103 ft 0 kts 348°
2026-04-24 23:17 30.47530 -87.19075 104 ft 1 kts 348°
2026-04-24 23:17 30.47555 -87.19081 104 ft 8 kts 348°
2026-04-24 23:18 30.47618 -87.19125 105 ft 12 kts 303°
2026-04-24 23:18 30.47681 -87.19135 106 ft 10 kts 45°
2026-04-24 23:18 30.47733 -87.19078 106 ft 9 kts
2026-04-24 23:18 30.47792 -87.19092 107 ft 9 kts 347°
2026-04-24 23:19 30.47855 -87.19108 107 ft 10 kts 347°
2026-04-24 23:19 30.47934 -87.19129 106 ft 13 kts 347°
2026-04-24 23:19 30.48027 -87.19153 104 ft 14 kts 347°
2026-04-24 23:19 30.48126 -87.19181 104 ft 15 kts 346°
2026-04-24 23:20 30.48207 -87.19203 109 ft 12 kts 346°
2026-04-24 23:20 30.48261 -87.19168 106 ft 7 kts 76°
2026-04-24 23:20 30.48261 -87.19165 106 ft 0 kts 76°
2026-04-24 23:21 30.48262 -87.19161 106 ft 2 kts 77°
2026-04-24 23:21 30.48269 -87.19127 105 ft 7 kts 77°
2026-04-24 23:21 30.48271 -87.19063 103 ft 9 kts 129°
2026-04-24 23:22 30.48246 -87.19054 104 ft 0 kts 165°
2026-04-24 23:24 30.48146 -87.19026 102 ft 50 kts 167°
2026-04-24 23:24 30.47532 -87.18863 103 ft 128 kts 167°
2026-04-24 23:25 30.46480 -87.18576 376 ft 167 kts 166°
2026-04-24 23:25 30.45358 -87.18233 1307 ft 166 kts 165°
2026-04-24 23:25 30.44225 -87.17874 2154 ft 174 kts 167°
2026-04-24 23:25 30.43059 -87.17304 2771 ft 193 kts 149°
2026-04-24 23:26 30.42047 -87.16184 3284 ft 215 kts 128°
2026-04-24 23:26 30.41421 -87.14549 4045 ft 224 kts 102°
2026-04-24 23:26 30.41499 -87.12800 4978 ft 222 kts 72°
2026-04-24 23:26 30.42320 -87.11286 5750 ft 227 kts 44°
2026-04-24 23:27 30.43558 -87.10181 6629 ft 221 kts 34°
2026-04-24 23:27 30.44804 -87.09076 7320 ft 230 kts 37°
2026-04-24 23:27 30.46076 -87.07900 7942 ft 235 kts 37°
2026-04-24 23:27 30.47347 -87.06707 8813 ft 239 kts 37°
2026-04-24 23:28 30.48721 -87.05434 9126 ft 268 kts 36°
2026-04-24 23:28 30.50243 -87.04046 9622 ft 286 kts 36°
2026-04-24 23:28 30.51803 -87.02630 10594 ft 280 kts 36°
2026-04-24 23:28 30.53318 -87.01256 11647 ft 276 kts 34°
2026-04-24 23:29 30.54867 -86.99853 12174 ft 293 kts 35°
2026-04-24 23:29 30.56538 -86.98341 12493 ft 315 kts 35°
2026-04-24 23:29 30.58280 -86.96755 13216 ft 320 kts 35°
2026-04-24 23:29 30.60024 -86.95149 14079 ft 321 kts 35°
2026-04-24 23:30 30.61803 -86.93507 14582 ft 332 kts 35°
2026-04-24 23:30 30.63642 -86.91822 15129 ft 341 kts 35°
2026-04-24 23:30 30.65487 -86.90049 15780 ft 347 kts 38°
2026-04-24 23:30 30.67271 -86.88167 16580 ft 346 kts 40°
2026-04-24 23:31 30.68990 -86.86199 17377 ft 348 kts 42°
2026-04-24 23:31 30.70680 -86.84156 17945 ft 356 kts 43°
2026-04-24 23:31 30.72387 -86.82006 18323 ft 368 kts 44°
2026-04-24 23:31 30.74111 -86.79769 18778 ft 374 kts 45°
2026-04-24 23:32 30.75832 -86.77483 19334 ft 378 kts 45°
2026-04-24 23:32 30.77559 -86.75144 19811 ft 385 kts 46°
2026-04-24 23:32 30.79296 -86.72745 20278 ft 390 kts 46°
2026-04-24 23:32 30.81011 -86.70275 20808 ft 394 kts 49°
2026-04-24 23:33 30.82361 -86.67473 21268 ft 403 kts 68°
2026-04-24 23:33 30.82886 -86.64254 21788 ft 410 kts 87°
2026-04-24 23:33 30.82663 -86.60933 22350 ft 413 kts 92°
2026-04-24 23:33 30.82494 -86.57597 22905 ft 414 kts 90°
2026-04-24 23:34 30.82381 -86.54245 23478 ft 415 kts 89°
2026-04-24 23:34 30.82287 -86.50887 23949 ft 416 kts 89°
2026-04-24 23:34 30.82205 -86.47516 24431 ft 417 kts 89°
2026-04-24 23:34 30.82130 -86.44137 24843 ft 419 kts 89°
2026-04-24 23:35 30.82055 -86.40732 25205 ft 423 kts 89°
2026-04-24 23:35 30.81979 -86.37302 25580 ft 426 kts 89°
2026-04-24 23:35 30.81902 -86.33843 25961 ft 429 kts 90°
2026-04-24 23:35 30.81824 -86.30363 26346 ft 432 kts 90°
2026-04-24 23:36 30.81744 -86.26861 26716 ft 435 kts 90°
2026-04-24 23:36 30.81663 -86.23299 26738 ft 447 kts 90°
2026-04-24 23:36 30.81578 -86.19627 26721 ft 460 kts 90°
2026-04-24 23:36 30.81490 -86.15853 26721 ft 472 kts 90°
2026-04-24 23:37 30.81394 -86.12078 27144 ft 472 kts 90°
2026-04-24 23:37 30.81294 -86.08274 27716 ft 468 kts 90°
2026-04-24 23:37 30.81099 -86.00838 29132 ft 457 kts 90°
2026-04-24 23:38 30.81000 -85.97130 29405 ft 461 kts 90°
2026-04-24 23:38 30.80899 -85.93397 29756 ft 463 kts 90°
2026-04-24 23:38 30.80797 -85.89644 30075 ft 465 kts 91°
2026-04-24 23:38 30.80693 -85.85870 30342 ft 467 kts 91°
2026-04-24 23:39 30.80588 -85.82088 30664 ft 468 kts 91°
2026-04-24 23:39 30.80481 -85.78298 30977 ft 469 kts 91°
2026-04-24 23:39 30.80373 -85.74500 31280 ft 471 kts 91°
2026-04-24 23:39 30.80264 -85.70686 31583 ft 472 kts 91°
2026-04-24 23:40 30.80153 -85.66866 31876 ft 474 kts 91°
2026-04-24 23:40 30.80040 -85.63033 32173 ft 475 kts 91°
2026-04-24 23:40 30.79927 -85.59191 32465 ft 476 kts 91°
2026-04-24 23:40 30.79811 -85.55339 32802 ft 476 kts 91°
2026-04-24 23:41 30.79695 -85.51503 33205 ft 474 kts 91°
2026-04-24 23:41 30.79579 -85.47673 33613 ft 472 kts 91°
2026-04-24 23:41 30.79462 -85.43870 33994 ft 471 kts 91°
2026-04-24 23:41 30.79344 -85.40067 34287 ft 470 kts 91°
2026-04-24 23:42 30.79224 -85.36260 34494 ft 472 kts 91°
2026-04-24 23:42 30.79104 -85.32446 34749 ft 472 kts 91°
2026-04-24 23:42 30.78981 -85.28626 34913 ft 474 kts 91°
2026-04-24 23:42 30.78857 -85.24778 34924 ft 479 kts 91°
2026-04-24 23:43 30.78604 -85.17036 34914 ft 477 kts 91°
2026-04-24 23:43 30.78350 -85.09397 34914 ft 471 kts 91°
2026-04-24 23:44 30.78092 -85.01785 34921 ft 472 kts 91°
2026-04-24 23:44 30.77832 -84.94200 34923 ft 473 kts 91°
2026-04-24 23:45 30.77480 -84.86562 34914 ft 473 kts 99°
2026-04-24 23:45 30.76552 -84.82909 34901 ft 472 kts 115°
2026-04-24 23:45 30.74993 -84.79546 34935 ft 474 kts 120°
2026-04-24 23:46 30.71667 -84.72911 34925 ft 475 kts 121°
2026-04-24 23:46 30.68261 -84.66333 34935 ft 475 kts 121°
2026-04-24 23:47 30.64821 -84.59753 34930 ft 478 kts 121°
2026-04-24 23:47 30.61369 -84.53161 34931 ft 478 kts 121°
2026-04-24 23:48 30.57912 -84.46572 34934 ft 478 kts 121°
2026-04-24 23:48 30.54456 -84.39995 34934 ft 478 kts 121°
2026-04-24 23:49 30.50995 -84.33421 34946 ft 478 kts 121°
2026-04-24 23:49 30.47530 -84.26850 34946 ft 478 kts 121°
2026-04-24 23:50 30.44048 -84.20258 34948 ft 480 kts 121°
2026-04-24 23:50 30.40561 -84.13666 34949 ft 480 kts 121°
2026-04-24 23:51 30.36532 -84.07586 34926 ft 475 kts 143°
2026-04-24 23:51 30.30966 -84.03473 34928 ft 476 kts 151°
2026-04-24 23:52 30.25256 -83.99596 34945 ft 476 kts 152°
2026-04-24 23:52 30.19509 -83.95775 34956 ft 477 kts 152°
2026-04-24 23:53 30.13758 -83.91967 34958 ft 476 kts 152°
2026-04-24 23:53 30.08033 -83.88182 34962 ft 478 kts 152°
2026-04-24 23:54 30.02259 -83.84370 34964 ft 478 kts 152°
2026-04-24 23:54 29.96490 -83.80566 34952 ft 478 kts 152°
2026-04-24 23:55 29.90711 -83.76762 34961 ft 478 kts 152°
2026-04-24 23:55 29.84928 -83.72959 34960 ft 478 kts 152°
2026-04-24 23:56 29.80130 -83.69808 34963 ft 478 kts 152°
2026-04-24 23:56 29.74343 -83.66013 34964 ft 478 kts 152°
2026-04-24 23:57 29.68570 -83.62231 34963 ft 478 kts 152°
2026-04-24 23:57 29.62777 -83.58442 34962 ft 479 kts 152°
2026-04-24 23:58 29.56988 -83.54660 34964 ft 479 kts 152°
2026-04-24 23:58 29.51195 -83.50880 34967 ft 480 kts 152°
2026-04-24 23:59 29.45390 -83.47098 34966 ft 480 kts 152°
2026-04-24 23:59 29.39577 -83.43316 34966 ft 480 kts 152°
2026-04-25 00:00 29.33766 -83.39540 34965 ft 480 kts 153°
2026-04-25 00:00 29.27949 -83.35765 34969 ft 481 kts 153°
2026-04-25 00:01 29.22402 -83.31485 34982 ft 482 kts 145°
2026-04-25 00:01 29.17022 -83.26891 34962 ft 482 kts 145°
2026-04-25 00:02 29.11645 -83.22287 34965 ft 484 kts 145°
2026-04-25 00:02 29.06217 -83.17646 34948 ft 489 kts 145°
2026-04-25 00:03 29.00753 -83.12979 34971 ft 491 kts 145°
2026-04-25 00:03 28.95314 -83.08340 34962 ft 491 kts 145°
2026-04-25 00:04 28.89840 -83.03677 34964 ft 491 kts 145°
2026-04-25 00:04 28.84365 -82.99020 34963 ft 491 kts 145°
2026-04-25 00:05 28.78888 -82.94368 34965 ft 491 kts 145°
2026-04-25 00:05 28.73410 -82.89721 34963 ft 492 kts 145°
2026-04-25 00:06 28.67910 -82.85061 34965 ft 492 kts 145°
2026-04-25 00:06 28.62414 -82.80411 34966 ft 492 kts 145°
2026-04-25 00:07 28.56911 -82.75762 34970 ft 493 kts 145°
2026-04-25 00:07 28.51408 -82.71118 34966 ft 493 kts 145°
2026-04-25 00:08 28.45895 -82.66473 34950 ft 493 kts 146°
2026-04-25 00:08 28.40373 -82.61825 34969 ft 496 kts 146°
2026-04-25 00:09 28.34829 -82.57167 34965 ft 495 kts 146°
2026-04-25 00:09 28.29288 -82.52515 34963 ft 495 kts 146°
2026-04-25 00:10 28.23786 -82.47904 34966 ft 495 kts 146°
2026-04-25 00:10 28.18245 -82.43266 34966 ft 495 kts 146°
2026-04-25 00:11 28.12697 -82.38627 34966 ft 497 kts 146°
2026-04-25 00:11 28.07124 -82.33972 34953 ft 497 kts 146°
2026-04-25 00:12 28.01190 -82.30153 34945 ft 486 kts 167°
2026-04-25 00:12 27.94696 -82.27857 34935 ft 490 kts 166°
2026-04-25 00:13 27.88168 -82.25617 34960 ft 490 kts 167°
2026-04-25 00:13 27.81633 -82.23406 34875 ft 492 kts 167°
2026-04-25 00:14 27.78368 -82.22303 34534 ft 487 kts 167°
2026-04-25 00:14 27.75105 -82.21201 33785 ft 490 kts 167°
2026-04-25 00:14 27.71837 -82.20100 33009 ft 490 kts 167°
2026-04-25 00:14 27.68577 -82.19001 32150 ft 489 kts 167°
2026-04-25 00:15 27.65290 -82.17894 31205 ft 493 kts 167°
2026-04-25 00:15 27.62025 -82.16800 30559 ft 489 kts 167°
2026-04-25 00:15 27.58770 -82.15729 30060 ft 484 kts 167°
2026-04-25 00:15 27.55560 -82.14612 29457 ft 483 kts 161°
2026-04-25 00:16 27.52672 -82.12702 28929 ft 484 kts 140°
2026-04-25 00:16 27.50482 -82.09863 28426 ft 480 kts 123°
2026-04-25 00:16 27.48817 -82.06644 28119 ft 471 kts 122°
2026-04-25 00:16 27.47088 -82.03552 27801 ft 462 kts 122°
2026-04-25 00:17 27.45409 -82.00514 27653 ft 450 kts 122°
2026-04-25 00:17 27.43760 -81.97503 27522 ft 457 kts 122°
2026-04-25 00:17 27.42065 -81.94414 27361 ft 468 kts 122°
2026-04-25 00:17 27.40348 -81.91281 27205 ft 472 kts 122°
2026-04-25 00:18 27.38626 -81.88130 27062 ft 472 kts 122°
2026-04-25 00:18 27.36906 -81.84982 26905 ft 471 kts 122°
2026-04-25 00:18 27.35193 -81.81847 26754 ft 470 kts 122°
2026-04-25 00:18 27.33482 -81.78719 26598 ft 469 kts 122°
2026-04-25 00:19 27.31778 -81.75605 26450 ft 467 kts 122°
2026-04-25 00:19 27.30073 -81.72491 26294 ft 466 kts 122°
2026-04-25 00:19 27.28377 -81.69396 25954 ft 464 kts 122°
2026-04-25 00:19 27.26688 -81.66318 25241 ft 465 kts 122°
2026-04-25 00:20 27.24983 -81.63225 24303 ft 463 kts 122°
2026-04-25 00:20 27.23299 -81.60162 23459 ft 458 kts 122°
2026-04-25 00:20 27.21633 -81.57131 22475 ft 453 kts 122°
2026-04-25 00:20 27.19986 -81.54133 21548 ft 449 kts 122°
2026-04-25 00:21 27.18359 -81.51172 20824 ft 440 kts 121°
2026-04-25 00:21 27.16783 -81.48297 20383 ft 425 kts 121°
2026-04-25 00:21 27.15238 -81.45486 19933 ft 422 kts 121°
2026-04-25 00:21 27.13717 -81.42728 19472 ft 421 kts 121°
2026-04-25 00:22 27.12158 -81.39902 18999 ft 420 kts 121°
2026-04-25 00:22 27.10646 -81.37164 18548 ft 418 kts 121°
2026-04-25 00:22 27.09113 -81.34391 18067 ft 417 kts 121°
2026-04-25 00:22 27.07585 -81.31628 17571 ft 416 kts 122°
2026-04-25 00:23 27.06066 -81.28882 17108 ft 413 kts 122°
2026-04-25 00:23 27.04555 -81.26154 16661 ft 410 kts 122°
2026-04-25 00:23 27.03057 -81.23448 16226 ft 406 kts 122°
2026-04-25 00:23 27.01571 -81.20767 15797 ft 403 kts 122°
2026-04-25 00:24 27.00092 -81.18099 15365 ft 401 kts 122°
2026-04-25 00:24 26.98626 -81.15457 14921 ft 399 kts 122°
2026-04-25 00:24 26.97163 -81.12823 14460 ft 397 kts 122°
2026-04-25 00:24 26.95706 -81.10200 14045 ft 395 kts 122°
2026-04-25 00:25 26.94258 -81.07595 13597 ft 393 kts 122°
2026-04-25 00:25 26.92818 -81.05006 13123 ft 390 kts 122°
2026-04-25 00:25 26.91386 -81.02431 12684 ft 387 kts 122°
2026-04-25 00:25 26.89968 -80.99885 12260 ft 384 kts 122°
2026-04-25 00:26 26.88566 -80.97367 11818 ft 375 kts 122°
2026-04-25 00:26 26.87209 -80.94930 11415 ft 361 kts 122°
2026-04-25 00:26 26.85901 -80.92583 11030 ft 349 kts 122°
2026-04-25 00:26 26.84637 -80.90319 10661 ft 337 kts 122°
2026-04-25 00:27 26.83416 -80.88131 10363 ft 324 kts 122°
2026-04-25 00:27 26.82253 -80.86050 10220 ft 310 kts 122°
2026-04-25 00:27 26.81127 -80.84037 10092 ft 301 kts 122°
2026-04-25 00:27 26.80130 -80.82013 9931 ft 295 kts 108°
2026-04-25 00:28 26.79791 -80.79781 9598 ft 291 kts 89°
2026-04-25 00:28 26.79789 -80.77515 9251 ft 290 kts 89°
2026-04-25 00:28 26.79460 -80.75321 9018 ft 286 kts 110°
2026-04-25 00:28 26.78747 -80.73277 8865 ft 278 kts 110°
2026-04-25 00:29 26.78077 -80.71279 8684 ft 271 kts 110°
2026-04-25 00:29 26.77422 -80.69316 8530 ft 270 kts 110°
2026-04-25 00:29 26.76768 -80.67350 8376 ft 269 kts 110°
2026-04-25 00:29 26.76115 -80.65386 8227 ft 269 kts 110°
2026-04-25 00:30 26.75464 -80.63428 8070 ft 268 kts 110°
2026-04-25 00:30 26.74814 -80.61474 7841 ft 269 kts 110°
2026-04-25 00:30 26.74161 -80.59510 7504 ft 270 kts 110°
2026-04-25 00:30 26.73490 -80.57566 7079 ft 267 kts 110°
2026-04-25 00:31 26.72817 -80.55642 6668 ft 264 kts 110°
2026-04-25 00:31 26.72156 -80.53749 6323 ft 258 kts 110°
2026-04-25 00:31 26.71293 -80.52029 5960 ft 251 kts 135°
2026-04-25 00:31 26.69879 -80.51078 6020 ft 234 kts 165°
2026-04-25 00:32 26.68268 -80.50797 6030 ft 236 kts 183°
2026-04-25 00:32 26.66731 -80.51324 5926 ft 232 kts 215°
2026-04-25 00:32 26.65703 -80.52664 5936 ft 229 kts 248°
2026-04-25 00:32 26.65402 -80.53786 5975 ft 228 kts 259°
2026-04-25 00:33 26.65648 -80.56079 5910 ft 225 kts 300°
2026-04-25 00:33 26.66733 -80.57303 5836 ft 224 kts 331°
2026-04-25 00:33 26.68235 -80.57677 5721 ft 225 kts
2026-04-25 00:33 26.69680 -80.57085 5615 ft 228 kts 36°
2026-04-25 00:34 26.70648 -80.55692 5497 ft 232 kts 67°
2026-04-25 00:34 26.70907 -80.53908 5354 ft 234 kts 88°
2026-04-25 00:34 26.70825 -80.52099 5158 ft 231 kts 94°
2026-04-25 00:34 26.70684 -80.50352 5006 ft 217 kts 95°
2026-04-25 00:35 26.70535 -80.48701 4992 ft 214 kts 99°
2026-04-25 00:35 26.70131 -80.47080 4983 ft 214 kts 100°
2026-04-25 00:35 26.69976 -80.45490 4942 ft 207 kts 94°
2026-04-25 00:35 26.69873 -80.43865 4836 ft 212 kts 94°
2026-04-25 00:36 26.69772 -80.42196 4705 ft 217 kts 94°
2026-04-25 00:36 26.69673 -80.40514 4573 ft 217 kts 93°
2026-04-25 00:36 26.69576 -80.38836 4453 ft 216 kts 94°
2026-04-25 00:36 26.69481 -80.37163 4346 ft 215 kts 94°
2026-04-25 00:37 26.69386 -80.35493 4244 ft 215 kts 94°
2026-04-25 00:37 26.69308 -80.33830 4069 ft 214 kts 92°
2026-04-25 00:37 26.69239 -80.32170 3782 ft 212 kts 93°
2026-04-25 00:37 26.69171 -80.30538 3483 ft 210 kts 94°
2026-04-25 00:38 26.69101 -80.28914 3185 ft 208 kts 93°
2026-04-25 00:38 26.69033 -80.27297 2893 ft 207 kts 94°
2026-04-25 00:38 26.68965 -80.25728 2621 ft 197 kts 94°
2026-04-25 00:38 26.68901 -80.24242 2365 ft 183 kts 94°
2026-04-25 00:39 26.68843 -80.22890 2107 ft 170 kts 95°
2026-04-25 00:39 26.68785 -80.21572 1961 ft 170 kts 94°
2026-04-25 00:39 26.68730 -80.20285 1749 ft 157 kts 95°
2026-04-25 00:39 26.68680 -80.19125 1580 ft 145 kts 94°
2026-04-25 00:40 26.68632 -80.18006 1387 ft 143 kts 95°
2026-04-25 00:40 26.68585 -80.16899 1179 ft 142 kts 94°
2026-04-25 00:40 26.68535 -80.15797 974 ft 142 kts 95°
2026-04-25 00:40 26.68502 -80.15072 837 ft 140 kts 94°
2026-04-25 00:41 26.68448 -80.13641 622 ft 136 kts 94°
2026-04-25 00:41 26.68398 -80.12588 409 ft 135 kts 94°
2026-04-25 00:41 26.68356 -80.11536 250 ft 136 kts 93°
2026-04-25 00:41 26.68308 -80.10492 68 ft 132 kts 94°
2026-04-25 00:42 26.68279 -80.09829 35 ft 115 kts 93°
2026-04-25 00:42 26.68251 -80.09209 29 ft 48 kts 92°
2026-04-25 00:42 26.68235 -80.08883 28 ft 32 kts 93°
2026-04-25 00:42 26.68241 -80.08681 31 ft 17 kts 47°
2026-04-25 00:43 26.68330 -80.08629 33 ft 9 kts
2026-04-25 00:43 26.68344 -80.08628 33 ft 3 kts
2026-04-25 00:43 26.68353 -80.08627 33 ft 0 kts
2026-04-25 00:43 26.68361 -80.08635 32 ft 4 kts 295°
2026-04-25 00:44 26.68347 -80.08710 31 ft 17 kts 257°
2026-04-25 00:44 26.68347 -80.08882 26 ft 25 kts 272°
2026-04-25 00:44 26.68355 -80.09070 28 ft 15 kts 272°
2026-04-25 00:44 26.68382 -80.09150 28 ft 10 kts 356°
2026-04-25 00:45 26.68445 -80.09110 27 ft 12 kts 38°
2026-04-25 00:45 26.68528 -80.09094 27 ft 13 kts
2026-04-25 00:45 26.68561 -80.09061 28 ft 6 kts 102°
2026-04-25 00:45 26.68557 -80.09013 29 ft 6 kts 91°